Regional Weather Roundup
Issued by NWS Albany, NY

Home | Current Version | Previous Version | Text Only | Print | Product List | Glossary On
Versions: 1 2 3 4 5 6 7 8 9 10 11 12 13 14 15 16 17 18 19 20 21 22 23 24 25 26 27 28 29 30 31 32 33 34 35 36 37 38 39 40 41 42 43 44 45 46 47 48 49 50
000
ASUS41 KALY 280710
RWRALY

NEW YORK STATE HOURLY WEATHER ROUNDUP
NATIONAL WEATHER SERVICE ALBANY NY
300 AM EDT SAT MAR 28 2015

NOTE: "FAIR" INDICATES FEW OR NO CLOUDS BELOW 12,000 FEET WITH NO
SIGNIFICANT WEATHER AND/OR NO OBSTRUCTIONS TO VISIBILITY.

NYZ032-033-038>043-046>054-057>066-NYZ062>081-280800-
EAST


CITY           SKY/WX    TMP DP  RH WIND       PRES   REMARKS
ALBANY         FLURRIES  30  25  81 NW9       29.85F WCI  22
GLENS FALLS    CLOUDY    31  26  82 N7        29.84F WCI  24
POUGHKEEPSIE   CLOUDY    35  20  54 N9        29.79F WCI  28
NEWBURGH       CLOUDY    34  27  75 VRB6      29.80F WCI  29
MONTGOMERY     MOCLDY    33  22  63 CALM      29.78F
WHITE PLAINS   MOCLDY    34  21  59 N16       29.74F WCI  24
ISLIP          CLOUDY    37  26  64 NW14      29.72F WCI  28
NEW YORK CITY  MOCLDY    38  25  59 N15       29.76F WCI  29
CENTRAL PARK   CLOUDY    38  23  55 N13G22    29.79F WCI  30
$$

NYZ005>009-017-018-044>046-055-056-280800-
CENTRAL


CITY           SKY/WX    TMP DP  RH WIND       PRES   REMARKS
FULTON         CLOUDY    22  10  60 N9        29.97S WCI  12
SYRACUSE       CLOUDY    21  13  71 NW9       29.96S WCI  11
ROME           CLOUDY    23  15  71 N12       29.94S WCI  12
ELMIRA         LGT SNOW  24  19  81 NE8       29.90F WCI  15
BINGHAMTON     CLOUDY    22  16  78 N9        29.82F WCI  12
MONTICELLO     CLEAR     25  18  74 NW10G17   29.78F WCI  15
$$

NYZ026>034-041>043-280800-
NORTH


CITY           SKY/WX    TMP DP  RH WIND       PRES   REMARKS
WATERTOWN      CLOUDY    20   6  55 N14       29.99S WCI   7
FORT DRUM      NOT AVBL
MASSENA        CLOUDY    20   3  48 NW9       29.99F WCI   9
SARANAC LAKE   LGT SNOW  17  14  88 VRB3      29.83S FOG
PLATTSBURGH    LGT SNOW  24  19  81 NW9       29.92S WCI  14
$$

NYZ001>004-010>016-019>021-280800-
WEST


CITY           SKY/WX    TMP DP  RH WIND       PRES   REMARKS
NIAGARA FALLS  LGT SNOW  19  14  81 NW14      30.02F WCI   6
BUFFALO        LGT SNOW  20  15  81 NW13      30.01S WCI   7
DUNKIRK        CLOUDY    16  10  77 W3        30.04F
JAMESTOWN      CLOUDY    12   9  85 N10       29.93F WCI  -1
WELLSVILLE     FLURRIES  17  11  77 NW15      29.86F WCI   2
ROCHESTER      CLOUDY    21  18  88 CALM      29.99S
PENN YAN       CLOUDY    21  15  78 N12       29.94S WCI   9
$$

             KEY
       WCI = WIND CHILL INDEX
       VSB = VISIBILITY
       HX  = HEAT INDEX
$$


USA.gov is the U.S. government's official web portal to all federal, state and local government web resources and services.